This is the latest recevied weather packets stored in our database for station/object 4S6DRJ-13. If no packets are shown the sender has not sent any weather packets the latest 10 day(s).
| Time | Temp. | Humidity | Pressure | Rain* | Wind** | Luminosity | Snow |
|---|---|---|---|---|---|---|---|
| 1788259913 | 30.56° C | 73% | 1007.9 hPa | 0 mm | 0.89 m/s, 155° | 214 W/m² | - |
| 1788259852 | 30.56° C | 72% | 1007.9 hPa | 0 mm | 1.34 m/s, 256° | 242 W/m² | - |
| 1788259791 | 30.56° C | 72% | 1007.7 hPa | 0 mm | 1.79 m/s, 225° | 440 W/m² | - |
| 1788259730 | 30.56° C | 71% | 1007.8 hPa | 0 mm | 2.24 m/s, 209° | 197 W/m² | - |
| 1788259670 | 30.56° C | 72% | 1007.9 hPa | 0 mm | 2.68 m/s, 257° | 227 W/m² | - |
| 1788259608 | 30.56° C | 72% | 1007.8 hPa | 0 mm | 0.89 m/s, 316° | 228 W/m² | - |
| 1788259550 | 30.56° C | 72% | 1007.8 hPa | 0 mm | 2.24 m/s, 292° | 516 W/m² | - |
| 1788259486 | 30.56° C | 72% | 1007.8 hPa | 0 mm | 1.79 m/s, 231° | 482 W/m² | - |
| 1788259425 | 31.11° C | 72% | 1007.8 hPa | 0 mm | 1.34 m/s, 260° | 492 W/m² | - |
| 1788259364 | 31.11° C | 71% | 1007.8 hPa | 0 mm | 2.68 m/s, 227° | 502 W/m² | - |
| 1788259303 | 31.11° C | 71% | 1007.9 hPa | 0 mm | 1.79 m/s, 224° | 243 W/m² | - |
| 1788259242 | 31.11° C | 71% | 1007.8 hPa | 0 mm | 0.89 m/s, 273° | 561 W/m² | - |
| 1788259181 | 30.56° C | 72% | 1007.9 hPa | 0 mm | 1.34 m/s, 316° | 544 W/m² | - |
| 1788259120 | 30.56° C | 72% | 1007.8 hPa | 0 mm | 0.89 m/s, 300° | 526 W/m² | - |
| 1788259059 | 30.56° C | 72% | 1007.7 hPa | 0 mm | 1.34 m/s, 221° | 537 W/m² | - |
| 1788258998 | 30.56° C | 72% | 1007.8 hPa | 0 mm | 1.79 m/s, 222° | 222 W/m² | - |
| 1788258937 | 30.56° C | 73% | 1007.8 hPa | 0 mm | 0.89 m/s, 223° | 575 W/m² | - |
| 1788258876 | 30.56° C | 72% | 1007.7 hPa | 0 mm | 2.68 m/s, 230° | 600 W/m² | - |
| 1788258815 | 30.56° C | 72% | 1007.9 hPa | 0 mm | 0.45 m/s, 233° | 485 W/m² | - |
| 1788258754 | 30.56° C | 72% | 1007.9 hPa | 0 mm | 1.79 m/s, 90° | 267 W/m² | - |
| 1788258694 | 30.56° C | 72% | 1007.8 hPa | 0 mm | 0.89 m/s, 48° | 203 W/m² | - |
| 1788258640 | 30.56° C | 72% | 1007.8 hPa | 0 mm | 2.68 m/s, 281° | 586 W/m² | - |
| 1788258571 | 30.56° C | 73% | 1007.7 hPa | 0 mm | 1.34 m/s, 289° | 611 W/m² | - |
| 1788258510 | 30.56° C | 72% | 1007.9 hPa | 0 mm | 1.34 m/s, 125° | 252 W/m² | - |
| 1788258449 | 30.56° C | 72% | 1007.9 hPa | 0 mm | 0.89 m/s, 325° | 240 W/m² | - |
* Rain latest hour (hover to see other rain measurements)
** Current wind speed in m/s (hover to see current wind gust speed)